Garrison, ND

6:51 PM CST on February 22, 2017 (GMT -0600)
Garrison

Weather History for KN60 - October, 2012

Change the Weather History Date:

Tuesday, October 23, 2012

  Actual Average Record
Temperature  
Mean Temperature 44 °F -  
Max Temperature 48 °F - 72 °F (1998)
Min Temperature 40 °F - 14 °F (2006)
Degree Days  
Heating Degree Days 21    
Month to date heating degree days 475  
Cooling Degree Days 0    
Month to date cooling degree days 0  
Year to date cooling degree days 458  
Moisture  
Dew Point 42 °F    
Average Humidity 97    
Maximum Humidity 100    
Minimum Humidity 93    
Precipitation  
Precipitation 0.26 in - 0.86 in (2015)
Month to date precipitation 1.99  
Year to date precipitation 15.13  
Sea Level Pressure  
Sea Level Pressure 29.75 in    
Wind  
Wind Speed 10 mph (West)    
Max Wind Speed 22 mph    
Max Gust Speed 28 mph    
T = Trace of Precipitation, MM = Missing Value Source: NWS Daily Summary

Daily Weather History Graph

Daily Weather History Graph

Search for Another Location

Airport or City:

Trip Planner

Search our weather history database for the weather conditions in past years. The results will help you decide how hot, cold, wet, or windy it might be!

Date:

Astronomy

Oct. 23, 2012 Rise Set
Actual Time 8:17 AM CDT 6:42 PM CDT
Civil Twilight 7:45 AM CDT 7:13 PM CDT
Nautical Twilight 7:09 AM CDT 7:49 PM CDT
Astronomical Twilight 6:33 AM CDT 8:25 PM CDT
Moon 3:48 PM CDT 1:46 AM CDT
Length of Visible Light 11h 28m
Length of Day
10h 24m
Waxing Gibbous, 67% of the Moon is Illuminated
Oct 23
Waxing Gibbous
Oct 29
Full
Nov 6
Last Quarter
Nov 13
New
Nov 20
First Quarter

Hourly Weather History & Observations

Time (CDT) Temp. Windchill Dew Point Humidity Pressure Visibility Wind Dir Wind Speed Gust Speed Precip Events Conditions
12:52 AM 39.9 °F 31.4 °F 39.9 °F 100% 29.81 in - SE 16.1 mph - 0.02 in   Unknown
1:52 AM 41.0 °F 34.3 °F 41.0 °F 100% 29.76 in - East 11.5 mph 20.7 mph 0.07 in   Unknown
2:52 AM 41.0 °F 38.0 °F 39.0 °F 93% 29.78 in - East 4.6 mph - 0.03 in   Unknown
3:52 AM 41.0 °F 35.8 °F - N/A% 29.74 in - East 8.1 mph - 0.02 in   Unknown
4:52 AM 42.1 °F 35.7 °F - N/A% 29.72 in - ESE 11.5 mph - N/A   Unknown
5:52 AM 43.0 °F 37.7 °F - N/A% 29.69 in - SE 9.2 mph - 0.01 in   Unknown
6:52 AM 44.1 °F 38.1 °F - N/A% 29.66 in - SE 11.5 mph - 0.04 in   Unknown
7:52 AM 44.1 °F 39.5 °F - N/A% 29.67 in - SSE 8.1 mph - 0.01 in   Unknown
8:52 AM 45.0 °F 42.6 °F 45.0 °F 100% 29.68 in - SE 4.6 mph - 0.01 in   Unknown
9:52 AM 46.0 °F 43.9 °F 46.0 °F 100% 29.68 in - SE 4.6 mph - 0.01 in   Unknown
10:52 AM 46.0 °F 43.9 °F - N/A% 29.68 in - South 4.6 mph - N/A   Unknown
11:52 AM 46.9 °F - 46.9 °F 100% 29.68 in - SW 6.9 mph - 0.01 in   Unknown
12:52 PM 46.9 °F - 46.9 °F 100% 29.68 in - WNW 8.1 mph - 0.02 in   Unknown
1:52 PM 46.9 °F - 46.9 °F 100% 29.68 in - WNW 16.1 mph 23.0 mph N/A   Unknown
2:52 PM 45.0 °F 37.9 °F 45.0 °F 100% 29.71 in - WNW 16.1 mph 25.3 mph 0.06 in   Unknown
3:52 PM 45.0 °F 37.6 °F 45.0 °F 100% 29.70 in - NW 17.3 mph - 0.01 in   Unknown
4:52 PM 45.0 °F 39.3 °F 45.0 °F 100% 29.72 in - WNW 11.5 mph - N/A   Unknown
5:52 PM 43.0 °F 35.7 °F 43.0 °F 100% 29.76 in - NNW 15.0 mph 24.2 mph N/A   Unknown
6:52 PM 42.1 °F 36.1 °F 42.1 °F 100% 29.80 in - WNW 10.4 mph - N/A   Unknown
7:52 PM 41.0 °F 36.4 °F 41.0 °F 100% 29.82 in - WNW 6.9 mph - N/A   Unknown
8:52 PM 42.1 °F 35.2 °F 42.1 °F 100% 29.85 in - West 12.7 mph - N/A   Unknown
9:52 PM 37.9 °F 31.5 °F 37.9 °F 100% 29.87 in - WNW 9.2 mph - N/A   Unknown
10:52 PM 37.0 °F 29.3 °F 35.1 °F 93% 29.86 in - WNW 11.5 mph - N/A   Unknown
11:52 PM 35.1 °F 26.9 °F 34.0 °F 96% 29.89 in - WNW 11.5 mph - N/A   Unknown